User: anonymous   Login
Location: Caltech
(34.1382°N, 118.1253°W)
Time: 22:33:23
(UTC-08:00)
Language:

Cosmos 1758 Rocket - Orbit

View from above orbital plane
View from above orbital plane
View from above satellite
View from above satellite

Ground track
Ground track

The orbit data is extracted from the following two-line orbital elements,

1 16792U 86046B   17324.85771083  .00000119  00000-0  11584-4 0  9999
2 16792  82.4852  54.9924 0025344 134.9056   4.3617 14.83157649698108
Epoch (UTC): 20 November 2017 20:35:06
Eccentricity: 0.0025344
inclination: 82.4852°
perigee height: 601 km
apogee height: 637 km
right ascension of ascending node: 54.9924°
argument of perigee: 134.9056°
revolutions per day: 14.83157649
mean anomaly at epoch: 4.3617°
orbit number at epoch: 69810

The dashed part of the orbit path shows where the satellite is in the earth's shadow,  

DLR